User: anonymous
Location: Chenango Forks
(42.2242°N, 75.8278°W)
Time: 17:20:08
(UTC-04:00)
Language:

Okean 3 Rocket - Orbit

View from above orbital plane
View from above orbital plane
View from above satellite
View from above satellite

Ground track
Ground track

The orbit data is extracted from the following two-line orbital elements,

1 21398U 91039B   14244.21076006  .00000196  00000-0  23262-4 0  8301
2 21398 082.5206 095.4378 0020091 285.1662 209.0878 14.79195269253092
Epoch (UTC): 01 September 2014 05:03:29
Eccentricity: 0.0020091
inclination: 82.5206°
perigee height: 618 km
apogee height: 646 km
right ascension of ascending node: 95.4378°
argument of perigee: 285.1662°
revolutions per day: 14.79195269
mean anomaly at epoch: 209.0878°
orbit number at epoch: 25309

The dashed part of the orbit path shows where the satellite is in the earth's shadow,  

DLR